Theta_e
333 330 326 326 332 335 329 326 322 316 318 323 323 328 329 329 329 329 329 324 324 320 320 321 322 323 324 325 325 325 325 325 325 324 324 325 326 325
331 332 327 330 332 330 326 324 325 323 319 324 324 326 328 329 330 329 328 325 322 320 320 319 319 320 321 321 321 322 323 323 322 322 322 322 322 322
331 330 325 330 327 326 331 333 331 329 321 323 325 326 325 325 327 327 327 326 324 320 320 318 316 317 318 318 319 319 319 319 319 318 318 317 317 317
325 328 323 330 331 327 326 329 329 331 324 319 324 324 323 325 325 324 325 326 325 321 318 316 315 315 316 317 316 315 313 312 311 311 312 311 311 311
329 328 324 328 328 330 330 331 329 328 325 323 321 324 323 324 324 325 325 324 326 322 318 316 315 316 315 313 312 311 308 306 306 306 307 307 308 308
328 327 328 329 330 331 329 329 330 326 324 322 321 321 321 325 324 321 318 322 322 323 316 316 315 312 312 311 310 307 304 303 302 302 302 302 302 303
326 326 327 327 322 326 328 330 328 325 323 321 320 320 320 321 321 322 317 317 321 324 323 324 321 316 313 309 308 306 303 302 301 301 300 299 298 299
325 325 327 321 316 310 313 315 321 323 321 320 321 320 321 320 320 321 318 317 316 325 318 314 316 313 313 311 304 302 301 301 300 300 299 298 298 297
324 324 323 321 322 322 310 311 311 310 314 323 320 321 323 325 326 322 322 321 321 322 316 311 314 310 309 304 301 300 299 298 298 298 298 297 296 296
324 324 322 320 320 321 323 320 320 319 320 324 326 326 329 328 329 331 325 320 321 319 321 310 313 309 308 305 300 298 297 297 297 297 297 296 295 295
323 323 323 317 302 306 320 317 318 316 303 301 303 301 303 307 318 324 318 319 316 316 319 313 310 309 309 307 302 298 296 296 295 296 296 296 295 295
323 321 309 316 300 305 323 321 321 318 317 321 322 313 316 311 309 330 325 323 319 312 316 314 312 311 308 308 307 305 305 296 296 295 295 295 294 300
323 324 325 300 299 302 308 323 318 319 313 322 322 322 323 323 323 325 328 325 318 316 314 317 313 312 313 308 309 305 304 301 301 300 296 295 294 293
326 326 324 300 299 299 308 295 298 308 319 319 318 316 316 315 315 314 316 316 318 319 315 318 313 310 306 303 303 303 303 302 300 299 299 297 295 294
329 317 299 297 296 300 295 296 302 318 317 314 312 312 313 312 312 311 311 310 309 308 309 312 309 307 304 301 299 299 298 302 299 298 298 298 297 298
308 316 306 304 298 307 309 305 319 320 318 317 316 314 312 311 311 311 309 308 304 301 304 306 306 305 300 299 300 298 300 299 299 297 297 297 297 297
317 319 321 320 318 317 319 318 318 318 318 318 315 313 312 312 311 311 310 309 306 300 299 302 305 305 302 300 298 300 299 299 298 296 295 294 296 295
320 322 322 321 317 317 317 316 316 312 317 316 316 314 312 311 310 310 310 308 303 300 299 301 300 298 298 297 296 298 299 296 296 296 295 292 293 295
321 321 322 321 319 319 318 318 317 318 319 316 316 315 313 312 307 309 308 305 301 299 297 299 299 297 295 293 296 291 294 295 294 294 292 292 291 293
322 321 320 321 321 320 318 317 317 317 316 316 315 314 314 312 310 309 306 302 296 294 295 296 297 295 295 295 294 295 287 292 291 290 291 292 292 289
317 318 320 321 320 320 319 318 316 315 315 314 314 314 314 313 312 310 306 292 293 294 292 293 293 287 296 296 293 292 292 288 288 290 289 288 288 289
317 315 316 318 319 319 317 316 315 312 313 313 314 313 313 313 311 308 303 297 293 293 294 294 294 295 295 293 290 288 291 291 289 287 287 286 288 286
321 319 317 315 315 316 315 314 313 314 313 313 312 312 312 309 309 304 296 295 293 292 293 293 295 295 293 290 288 289 287 288 288 287 289 286 286 286
Wind_Speed
5 7 7 5 5 4 5 2 2 4 2 3 2 6 11 12 15 13 12 14 11 9 10 11 9 9 9 8 7 6 4 3 1 3 4 4 7 9
4 7 7 5 6 5 5 3 1 3 4 2 1 11 13 11 15 12 10 13 12 9 10 7 8 8 7 7 6 5 2 2 2 1 3 5 7 9
6 7 6 9 7 6 7 6 3 4 6 3 2 13 16 14 11 10 9 8 6 8 7 9 8 7 7 5 3 2 2 1 1 5 5 6 7 8
6 5 7 7 9 7 3 6 6 6 8 9 6 8 13 13 12 12 7 5 6 6 7 7 7 5 4 3 2 2 3 6 5 5 6 7 10 10
6 7 5 6 8 7 7 7 7 6 6 7 5 6 10 10 11 8 8 6 4 6 4 5 7 5 4 5 6 6 8 8 10 11 13 13 12 11
6 7 7 7 8 9 6 7 8 8 7 8 9 8 11 7 7 7 4 4 3 5 9 10 10 12 10 12 14 15 15 14 15 15 13 11 11 10
7 7 6 6 7 7 6 8 8 6 7 8 7 8 7 8 8 3 4 5 4 6 7 7 8 9 10 15 18 18 17 16 14 12 12 11 10 11
9 7 8 10 9 10 10 10 7 9 10 7 6 9 8 7 4 5 7 5 6 5 8 9 7 9 9 9 15 16 15 13 13 12 12 11 8 8
9 8 7 6 8 10 12 14 13 13 9 8 11 9 11 10 9 8 6 5 7 9 11 9 7 9 9 9 13 14 14 12 12 11 8 9 10 10
9 8 8 7 7 8 10 9 8 8 6 4 8 8 8 9 8 7 9 9 9 7 6 8 7 8 8 9 9 12 11 10 9 10 11 13 11 7
8 6 8 9 6 8 8 8 9 8 9 10 11 8 11 12 9 9 9 10 7 6 3 7 8 8 7 7 8 8 7 9 10 11 12 12 14 13
6 5 9 9 8 7 7 9 10 8 9 11 10 11 10 8 4 5 9 7 6 5 5 5 9 7 5 5 4 4 5 4 7 8 8 11 11 7
7 7 5 7 9 8 7 6 5 10 8 10 9 8 8 6 4 4 3 5 6 3 5 5 8 7 2 5 6 3 3 4 5 4 4 4 3 5
9 7 6 7 8 7 4 10 12 10 8 7 7 7 7 6 6 6 8 7 6 7 7 4 4 6 5 5 4 3 3 4 5 5 5 3 8 10
6 7 11 9 9 8 8 10 7 6 7 7 6 6 6 7 9 9 10 12 12 10 7 5 5 6 3 4 4 3 3 2 4 4 5 5 5 6
8 6 7 8 9 8 7 6 5 5 6 7 7 7 7 7 7 7 7 7 7 7 9 9 8 7 7 6 4 3 2 1 3 4 5 4 5 5
8 6 5 4 4 4 4 5 5 6 6 6 8 8 8 8 7 6 6 5 5 7 7 7 9 9 8 4 3 2 1 1 3 5 5 5 4 5
6 7 6 6 6 6 6 7 7 7 7 7 8 8 8 8 7 7 5 5 7 7 8 7 7 7 6 6 9 2 1 3 4 5 5 6 5 5
7 7 8 8 8 8 8 8 8 8 8 8 8 9 8 9 9 8 7 7 7 6 6 6 6 4 5 4 5 7 4 3 4 4 4 5 6 6
8 8 9 9 9 9 8 8 8 8 8 7 7 8 8 9 10 10 9 9 9 6 7 5 2 2 2 2 2 4 4 4 4 4 5 5 4 5
10 10 9 9 9 8 8 8 8 8 8 8 8 9 10 9 9 8 8 8 8 8 8 7 6 3 3 0 1 1 3 7 3 5 6 5 6 4
11 11 10 9 9 9 9 8 9 8 9 9 9 9 10 9 10 10 10 11 7 8 9 6 5 7 0 1 2 3 1 2 5 5 4 3 4 5
12 11 11 11 10 10 10 10 10 10 11 10 10 10 11 10 9 8 10 10 10 9 8 7 5 4 1 2 3 3 2 4 3 4 2 4 3 8
Wind_Direction
115 121 143 177 188 104 111 84 80 133 124 86 108 110 113 121 125 126 131 127 136 133 129 121 142 152 147 148 148 151 154 142 54 13 359 330 296 281
141 148 144 153 137 112 121 110 169 165 119 73 124 130 127 123 125 122 126 126 123 135 122 135 156 148 150 151 167 171 151 62 57 309 302 294 297 293
144 148 130 155 137 150 165 179 139 104 115 80 351 129 120 124 116 112 120 120 128 123 138 178 147 147 163 168 180 96 137 161 5 2 350 360 351 354
133 145 136 151 139 127 128 132 124 112 129 133 105 115 125 125 121 120 127 124 128 167 170 138 145 149 122 121 152 124 75 52 53 58 56 49 44 35
142 126 148 154 130 151 153 130 126 113 120 132 122 111 129 128 126 131 131 127 136 149 104 105 101 122 121 91 94 90 82 80 78 74 66 63 59 52
132 136 158 152 151 148 150 145 139 128 123 125 129 123 127 135 120 130 104 89 96 110 76 77 84 80 88 85 82 84 86 82 74 68 66 62 53 46
127 136 150 134 95 121 143 145 135 125 135 137 119 126 133 139 134 108 94 112 97 128 108 101 107 99 93 83 84 85 81 76 74 73 61 52 45 39
126 123 124 112 97 92 97 88 117 139 133 133 128 137 136 117 117 117 130 156 121 127 100 103 106 92 87 88 95 89 86 82 70 63 52 42 38 45
116 116 107 112 117 102 99 92 80 75 89 131 141 146 147 154 144 141 158 151 122 131 123 112 111 103 106 95 90 91 82 75 65 63 55 40 38 32
104 100 98 84 102 107 102 92 86 76 56 95 138 147 152 152 152 152 132 113 116 145 149 129 137 114 116 107 85 88 83 81 72 55 42 29 16 10
104 96 102 94 104 105 104 106 106 89 52 62 76 84 114 127 139 134 150 150 144 152 162 123 149 143 145 129 115 113 100 73 55 39 31 18 359 315
105 103 81 107 101 113 129 129 119 124 126 124 106 96 106 102 61 199 170 171 138 148 156 150 161 157 165 155 151 160 131 87 91 55 32 20 357 337
142 147 126 106 101 100 123 138 127 140 119 122 117 120 129 135 113 84 136 171 162 119 143 158 174 183 217 147 169 114 75 55 33 43 154 113 285 316
157 160 145 126 102 109 103 109 114 134 134 127 126 122 123 119 108 90 83 80 52 88 132 211 152 185 159 149 147 137 86 65 19 360 345 349 215 185
176 114 107 108 116 101 103 122 133 126 131 132 130 129 124 113 118 105 93 92 79 70 61 69 126 123 120 118 109 62 342 135 9 345 343 359 8 7
131 105 94 90 73 96 126 166 184 171 166 158 143 128 133 143 134 140 132 129 114 99 77 72 88 100 97 84 99 109 36 335 342 7 334 8 18 21
131 143 157 169 163 158 154 162 164 163 168 154 152 155 158 161 155 158 155 167 149 141 111 88 80 77 79 100 114 85 6 330 360 3 351 354 22 19
167 177 185 186 190 183 178 173 181 185 175 172 168 169 170 174 162 165 168 158 146 144 136 134 136 133 135 103 11 5 360 345 2 5 350 334 343 18
199 194 196 196 200 199 198 194 191 190 178 186 180 178 176 176 167 173 174 164 152 147 142 150 166 189 205 216 121 13 328 358 338 351 344 345 329 344
225 213 209 206 209 207 206 205 201 183 195 192 191 186 186 181 186 180 179 165 147 143 132 133 124 359 321 337 153 100 30 345 352 339 339 334 314 247
215 221 222 218 219 217 216 210 206 200 193 192 195 194 193 191 193 188 166 157 141 141 139 129 114 129 84 15 178 198 124 111 11 333 343 336 338 315
215 220 219 222 220 218 214 211 204 195 195 199 200 199 196 201 187 178 169 160 149 146 131 127 143 97 194 273 226 243 275 344 151 164 128 42 336 310
221 220 219 217 218 214 212 209 211 207 207 206 204 202 194 192 199 154 146 147 135 134 140 133 117 88 257 251 273 249 320 321 335 321 284 129 304 290